Weather History for Conroe, TX

Change the Weather History Date:

Saturday, August 17, 2013

  Actual Average Record
Temperature  
Mean Temperature 80 °F -  
Max Temperature 93 °F 92 °F 104 °F (2011)
Min Temperature 66 °F 70 °F 60 °F (2004)
Cooling Degree Days 14    
Growing Degree Days 30 (Base 50)    
Moisture  
Dew Point 63 °F    
Average Humidity 65    
Maximum Humidity 100    
Minimum Humidity 30    
Precipitation  
Precipitation 0.00 in - - ()
Sea Level Pressure  
Sea Level Pressure 29.98 in    
Wind  
Wind Speed 3 mph (North)    
Max Wind Speed 14 mph    
Max Gust Speed 20 mph    
Visibility 9 miles    
Events      
Averages and records for this station are not official NWS values.
T = Trace of Precipitation, MM = Missing Value Source: NWS Daily Summary

Daily Weather History Graph

Daily Weather History Graph

Search for Another Location

Airport:

Trip Planner

Search our weather history database for the weather conditions in past years. The results will help you decide how hot, cold, wet, or windy it might be!

Date:

Astronomy

Aug. 17, 2013 Rise Set
Actual Time 6:49 AM CDT 8:00 PM CDT
Civil Twilight 6:24 AM CDT 8:25 PM CDT
Nautical Twilight 5:54 AM CDT 8:55 PM CDT
Astronomical Twilight 5:24 AM CDT 9:26 PM CDT
Moon 5:10 PM CDT (8/17) 3:01 AM CDT (8/17)
Length of Visible Light 14h 01m
Length of Day
13h 10m
Waxing Gibbous, 84% of the Moon is Illuminated
Aug 17
Waxing Gibbous
Aug 20
Full
Aug 28
Last Quarter
Sep 5
New
Sep 12
First Quarter

Hourly Weather History & Observations

Time (CDT) Temp. Heat Index Dew Point Humidity Pressure Visibility Wind Dir Wind Speed Gust Speed Precip Events Conditions
12:53 AM 70.0 °F - 70.0 °F 100% 29.99 in 4.0 mi Calm Calm - N/A   Partly Cloudy
1:53 AM 71.1 °F - 70.0 °F 96% 29.99 in 4.0 mi Calm Calm - N/A   Mostly Cloudy
2:53 AM 70.0 °F - 69.1 °F 97% 29.99 in 5.0 mi Calm Calm - N/A   Scattered Clouds
3:53 AM 69.1 °F - 68.0 °F 96% 29.99 in 6.0 mi Calm Calm - N/A   Partly Cloudy
4:53 AM 68.0 °F - 66.9 °F 96% 29.99 in 9.0 mi North 3.5 mph - N/A   Clear
5:53 AM 68.0 °F - 66.0 °F 93% 30.00 in 9.0 mi Calm Calm - N/A   Partly Cloudy
6:53 AM 66.9 °F - 64.9 °F 93% 30.01 in 9.0 mi North 3.5 mph - N/A   Partly Cloudy
7:53 AM 69.1 °F - 64.9 °F 87% 30.02 in 10.0 mi NNE 4.6 mph - N/A   Clear
8:53 AM 73.0 °F - 64.9 °F 76% 30.03 in 10.0 mi NNE 3.5 mph - N/A   Clear
9:53 AM 78.1 °F - 64.9 °F 64% 30.03 in 10.0 mi North 5.8 mph - N/A   Clear
10:53 AM 82.9 °F 84.6 °F 64.9 °F 54% 30.02 in 10.0 mi North 8.1 mph - N/A   Clear
11:53 AM 87.1 °F 88.3 °F 64.0 °F 46% 30.01 in 10.0 mi NNW 12.7 mph 17.3 mph N/A   Clear
12:53 PM 89.1 °F 90.0 °F 63.0 °F 42% 29.99 in 10.0 mi NNW 13.8 mph 19.6 mph N/A   Clear
1:53 PM 91.0 °F 90.9 °F 61.0 °F 36% 29.97 in 10.0 mi NNW 9.2 mph 16.1 mph N/A   Clear
2:53 PM 91.9 °F 90.8 °F 57.9 °F 32% 29.94 in 10.0 mi North 11.5 mph 18.4 mph N/A   Clear
3:53 PM 93.0 °F 91.7 °F 57.0 °F 30% 29.92 in 10.0 mi NNE 10.4 mph 16.1 mph N/A   Clear
4:53 PM 91.9 °F 90.6 °F 57.0 °F 31% 29.92 in 10.0 mi North 10.4 mph 17.3 mph N/A   Clear
5:53 PM 91.0 °F 89.7 °F 57.0 °F 32% 29.92 in 10.0 mi NE 8.1 mph 19.6 mph N/A   Clear
6:53 PM 89.1 °F 88.0 °F 57.9 °F 35% 29.93 in 10.0 mi NNE 6.9 mph - N/A   Clear
7:53 PM 84.0 °F 83.8 °F 59.0 °F 43% 29.94 in 10.0 mi North 3.5 mph - N/A   Clear
8:53 PM 75.9 °F - 60.1 °F 58% 29.95 in 10.0 mi Calm Calm - N/A   Clear
9:53 PM 73.0 °F - 61.0 °F 66% 29.97 in 10.0 mi Calm Calm - N/A   Clear
10:53 PM 70.0 °F - 62.1 °F 76% 29.98 in 10.0 mi Calm Calm - N/A   Clear
11:53 PM 68.0 °F - 61.0 °F 78% 29.99 in 10.0 mi Calm Calm - N/A   Clear